[[{"header":{"parameterUnit":"m.s-1","parameterCategory":1,"la1":30.2991,"la2":30.254,"lo1":-89.0895,"lo2":-89.0444,"dy":0.0017,"dx":0.0017,"nx":28,"ny":28,"refTime":"2025-07-04T09:00:00:Z","depth":0,"parameterNumber":2,"parameterNumberName":"U-component_of_WINDS"},"data":[0,0,0,0,0,0,0,0,0,0,0,0,0,0,0,0,0,0,0,0,0,0,0,0,0,0,0,0,0,0,0,0,0,0,0,0,0,0,0,0,0,0,0,0,0,0,0,0,0,0,0,0,0,0,0,0,0,0,2.5916,2.5916,0,2.5955,2.5955,2.5956,2.5923,2.5921,2.592,2.5918,2.5956,2.5959,2.5961,0,0,0,0,0,0,0,0,0,0,0,0,0,2.581,2.5812,2.5916,2.5916,2.5917,2.5955,2.5955,2.5956,2.5923,2.5921,2.5919,2.5918,2.5956,2.5958,2.5961,0,0,0,0,0,0,0,0,0,0,0,0,0,2.5853,2.5812,2.5916,2.5905,2.5904,2.5955,2.5955,2.5956,2.5923,2.5921,2.5919,2.5917,2.5955,2.5958,2.5962,2.6024,0,0,2.5972,2.5974,0,0,0,0,0,0,0,0,2.585,2.5857,2.5906,2.5906,2.5905,2.5932,2.5932,2.5979,2.5924,2.5916,2.5918,2.5916,2.595,2.5954,2.5965,2.6026,2.6028,2.5972,2.5974,2.5976,2.5977,0,0,0,0,0,0,0,2.5848,2.5855,2.5931,2.5907,2.5906,2.5897,2.5901,2.5941,2.5944,2.5916,2.5914,2.5919,2.5949,2.5962,2.5966,2.6028,2.5972,2.5975,2.5977,2.5979,2.6141,2.6143,0,0,0,0,0,0,2.5846,2.5853,2.593,2.5932,2.5872,2.5901,2.5905,2.5925,2.5943,2.5944,2.5921,2.5918,2.5957,2.5962,2.5967,2.604,2.5976,2.5979,2.5981,2.6139,2.6141,2.6144,0,0,0,0,0,0,2.5844,2.5853,2.5928,2.5892,2.5901,2.5905,2.5928,2.5927,2.594,2.5947,2.5947,2.5934,2.5956,2.5962,2.601,2.6041,2.5981,2.5984,2.6136,2.614,2.6143,2.6188,0,0,0,0,0,0,2.5841,2.5853,2.5877,2.5893,2.5903,2.5971,2.593,2.5929,2.5946,2.5942,2.5959,2.596,2.5955,2.6005,2.6014,2.6045,2.5987,2.6133,2.6138,2.6142,2.6184,2.6192,2.62,0,0,0,0,0,2.5837,2.5888,2.5878,2.5888,2.5933,2.5973,2.5979,2.5973,2.5949,2.5973,2.5977,2.5959,2.6037,2.601,2.602,2.6052,2.6131,2.6136,2.6141,2.618,2.6191,2.62,0,0,0,0,0,0,2.5874,2.589,2.5879,2.5937,2.5954,2.5967,2.5997,2.5984,2.6008,2.6003,2.5994,2.5998,2.6048,2.6055,2.6025,2.6113,2.608,2.6087,2.6106,2.6117,2.6125,2.6121,2.5989,0,0,0,0,0,2.589,2.5921,2.5933,2.5982,2.5992,2.5993,2.601,2.6004,2.6021,2.6028,2.6036,2.6053,2.6081,2.61,2.6126,2.6185,2.6188,2.6213,2.6221,2.6227,2.6233,2.6263,2.6274,2.616,2.616,2.616,0,0,2.592,2.5933,2.5953,2.599,2.6003,2.6035,2.5999,2.6035,2.6058,2.6033,2.6079,2.6085,2.6104,2.6157,2.6181,2.6164,2.6265,2.6234,2.6239,2.6241,2.6269,2.628,2.629,2.6164,2.6163,2.6163,0,0,2.5993,2.6006,2.6048,2.6062,2.6082,2.6083,2.6093,2.6109,2.6113,2.6158,2.614,2.6168,2.6217,2.623,2.6243,2.6322,2.6305,2.6331,2.6372,2.6402,2.6411,2.6419,2.6445,2.6454,2.6337,2.6337,2.6337,0,2.6028,2.6077,2.6071,2.6108,2.6124,2.6105,2.6146,2.616,2.6187,2.6198,2.618,2.6241,2.6252,2.6307,2.6327,2.6339,2.6349,2.6327,2.641,2.6418,2.6425,2.645,2.646,2.634,2.6339,2.6339,2.6339,0,2.6118,2.6152,2.6184,2.6211,2.6231,2.6271,2.627,2.6291,2.6284,2.6287,2.6333,2.6346,2.6374,2.6387,2.638,2.6442,2.643,2.6412,2.6378,2.6439,2.6462,2.6471,2.6344,2.6343,2.6342,2.6341,0,0,2.6213,2.6238,2.625,2.6261,2.6283,2.6308,2.6347,2.6375,2.6392,2.6412,2.6443,2.6485,2.6468,2.6483,2.6477,2.6504,2.6563,2.6482,2.6482,2.6494,2.6629,2.6642,2.6653,2.6553,2.6555,2.6557,2.6627,0,2.6285,2.6351,2.6348,2.641,2.6441,2.6423,2.6456,2.6472,2.6476,2.6502,2.6506,2.6536,2.6512,2.652,2.6546,2.655,2.659,2.6546,2.658,2.6581,2.6573,2.6665,2.6678,2.6744,2.6636,2.6638,2.6639,0,2.6376,2.64,2.6466,2.6482,2.6495,2.6524,2.655,2.6575,2.6593,2.6594,2.6611,2.6602,2.6639,2.6607,2.6657,2.6627,2.6642,2.6646,2.6649,2.6649,2.6612,2.6666,2.6765,2.6774,2.6653,2.6652,2.6651,0,2.6436,2.6485,2.653,2.6541,2.6562,2.6583,2.6592,2.6608,2.6625,2.6648,2.6658,2.6685,2.6699,2.6719,2.6716,2.6693,2.6767,2.6735,2.6767,2.6767,2.6781,2.678,2.6882,2.6795,2.6795,2.6795,2.6795,0,2.6515,2.6555,2.6557,2.6584,2.6628,2.6625,2.6668,2.6675,2.669,2.6718,2.6705,2.6731,2.6727,2.6753,2.6751,2.6793,2.68,2.68,2.6799,2.68,2.68,2.6807,2.6801,2.6797,2.6797,2.6796,2.6796,0,2.6587,2.6591,2.6638,2.6655,2.666,2.6692,2.6705,2.6731,2.6734,2.6769,2.6777,2.6782,2.6812,2.6813,2.6847,2.6846,2.6896,2.689,2.6889,2.6887,2.6919,2.6915,2.7027,2.7041,2.6948,2.6949,2.6949,0,2.6636,2.6667,2.6687,2.6705,2.6716,2.6745,2.6763,2.6761,2.6779,2.6802,2.6825,2.6854,2.6876,2.6925,2.6931,2.6957,2.6951,2.6988,2.6954,2.6954,2.6948,2.6945,2.6948,2.6994,2.6995,2.6996,2.6996,0,2.6721,2.6722,2.6748,2.6775,2.6797,2.6818,2.6837,2.6853,2.6852,2.6874,2.6905,2.6923,2.6958,2.6986,2.7012,2.702,2.7008,2.7008,2.7016,2.7016,2.7013,2.7013,2.6905,2.7004,2.7003,2.7003,2.7002,2.7002,2.6782,2.6808,2.6826,2.6856,2.687,2.6889,2.6913,2.692,2.6947,2.6975,2.6973,2.7007,2.7023,2.7056,2.7067,2.7093,2.708,2.7093,2.7095,2.7098,2.71,2.7012,2.7098,2.7098,2.7097,2.7097,2.7097,0,2.6864,2.6876,2.6903,2.6931,2.6954,2.6943,2.6964,2.6983,2.7014,2.7031,2.7054,2.7089,2.7117,2.7126,2.7152,2.7171,2.7166,2.7178,2.7175,2.7177,2.7112,2.7101,2.7181,2.7181,2.7181,2.7181,2.7181,2.7181,2.691,2.6953,2.6955,2.7005,2.7016,2.705,2.7062,2.7079,2.7093,2.7133,2.7156,2.7162,2.7176,2.7203,2.7227,2.7229,2.7238,2.7252,2.7252,2.719,2.7182,2.7173,2.7163,2.7255,2.7255,2.7314,2.7315,2.7315]},{"header":{"parameterUnit":"m.s-1","parameterCategory":1,"la1":30.2991,"la2":30.254,"lo1":-89.0895,"lo2":-89.0444,"dy":0.0017,"dx":0.0017,"nx":28,"ny":28,"refTime":"2025-07-04T09:00:00:Z","depth":0,"parameterNumber":3,"parameterNumberName":"V-component_of_WINDS"},"data":[0,0,0,0,0,0,0,0,0,0,0,0,0,0,0,0,0,0,0,0,0,0,0,0,0,0,0,0,0,0,0,0,0,0,0,0,0,0,0,0,0,0,0,0,0,0,0,0,0,0,0,0,0,0,0,0,0,0,0.8128,0.813,0,0.823,0.8231,0.8232,0.8264,0.8263,0.8263,0.8262,0.8363,0.8366,0.8369,0,0,0,0,0,0,0,0,0,0,0,0,0,0.7958,0.7961,0.8128,0.813,0.8131,0.8229,0.8231,0.8232,0.8264,0.8263,0.8263,0.8262,0.8362,0.8365,0.8369,0,0,0,0,0,0,0,0,0,0,0,0,0,0.8043,0.7962,0.8128,0.8159,0.8162,0.8229,0.8231,0.8232,0.8264,0.8263,0.8263,0.8262,0.8361,0.8365,0.837,0.8412,0,0,0.8384,0.8386,0,0,0,0,0,0,0,0,0.8038,0.8049,0.8153,0.8157,0.8161,0.8233,0.8208,0.8293,0.8264,0.8225,0.8262,0.8262,0.832,0.8328,0.8348,0.8417,0.8421,0.8384,0.8387,0.8389,0.839,0,0,0,0,0,0,0,0.8032,0.8045,0.8168,0.8154,0.8159,0.8166,0.8177,0.8224,0.8275,0.8229,0.8231,0.8243,0.8322,0.8344,0.8351,0.8423,0.8384,0.8388,0.8391,0.8393,0.8529,0.853,0,0,0,0,0,0,0.8022,0.804,0.8165,0.8171,0.8097,0.8169,0.8182,0.8211,0.8275,0.8284,0.8243,0.8244,0.8336,0.8346,0.8355,0.8408,0.8389,0.8393,0.8396,0.8528,0.8529,0.853,0,0,0,0,0,0,0.8018,0.8033,0.8161,0.8106,0.8123,0.8173,0.8205,0.8213,0.8235,0.8286,0.8295,0.8257,0.8336,0.8348,0.8397,0.8412,0.8396,0.84,0.8527,0.8528,0.8529,0.8515,0,0,0,0,0,0,0.8013,0.8031,0.8049,0.8107,0.8126,0.8204,0.8206,0.8216,0.8243,0.8245,0.8301,0.8309,0.8336,0.839,0.8402,0.8418,0.8403,0.8526,0.8528,0.8529,0.8515,0.8516,0.8517,0,0,0,0,0,0.8007,0.8041,0.805,0.8065,0.815,0.8205,0.8215,0.8247,0.8244,0.8262,0.8294,0.8307,0.8408,0.8395,0.8409,0.8426,0.8525,0.8527,0.8529,0.8514,0.8516,0.8517,0,0,0,0,0,0,0.7983,0.8049,0.806,0.8114,0.8153,0.821,0.8234,0.8248,0.8288,0.8288,0.8324,0.8337,0.8383,0.8409,0.8394,0.847,0.8467,0.8472,0.8451,0.8453,0.8454,0.8447,0.8407,0,0,0,0,0,0.7984,0.8025,0.8079,0.8121,0.8141,0.8183,0.8208,0.8229,0.8271,0.8288,0.8324,0.8363,0.8404,0.8429,0.847,0.8518,0.853,0.8536,0.8537,0.8538,0.8542,0.8568,0.8571,0.8536,0.8536,0.8536,0,0,0.7987,0.8028,0.8051,0.8118,0.8151,0.819,0.8197,0.8239,0.8268,0.8294,0.8343,0.837,0.8416,0.8465,0.8488,0.8489,0.8554,0.854,0.8541,0.8544,0.857,0.8574,0.8577,0.8537,0.8537,0.8537,0,0,0.8013,0.8048,0.8087,0.8119,0.8169,0.8197,0.8206,0.826,0.828,0.8329,0.8349,0.8383,0.8452,0.8484,0.8509,0.8543,0.8556,0.8555,0.8561,0.8586,0.8589,0.8591,0.8603,0.8607,0.8558,0.8558,0.8558,0,0.801,0.8072,0.8104,0.8145,0.8173,0.8198,0.8236,0.8266,0.8326,0.8344,0.8343,0.8429,0.8462,0.8518,0.8526,0.8545,0.8556,0.8549,0.8586,0.8589,0.8592,0.8603,0.8608,0.8558,0.8558,0.8558,0.8558,0,0.8065,0.8107,0.8132,0.819,0.822,0.8259,0.8297,0.8323,0.834,0.8367,0.8416,0.8456,0.8504,0.8518,0.8535,0.8576,0.8574,0.8579,0.8577,0.8594,0.8606,0.861,0.8557,0.8557,0.8557,0.8557,0,0,0.8081,0.8155,0.8164,0.819,0.8246,0.8278,0.8317,0.8364,0.8386,0.8425,0.8458,0.8515,0.8519,0.8547,0.8568,0.8589,0.8613,0.8592,0.8593,0.8594,0.8659,0.8656,0.866,0.8621,0.8622,0.8623,0.8655,0,0.8114,0.8187,0.8216,0.8274,0.8313,0.8335,0.8369,0.8406,0.8431,0.8466,0.8493,0.8533,0.8536,0.8553,0.8575,0.8605,0.8627,0.8603,0.8651,0.8653,0.864,0.8667,0.8664,0.8692,0.866,0.8661,0.8661,0,0.8163,0.8203,0.8266,0.8315,0.8332,0.8363,0.8407,0.8441,0.8482,0.8498,0.8529,0.8547,0.8587,0.8581,0.8636,0.8619,0.864,0.8657,0.8659,0.8665,0.8659,0.8674,0.8702,0.8707,0.8669,0.8668,0.8668,0,0.8168,0.8238,0.8284,0.8306,0.8365,0.8385,0.841,0.8451,0.8476,0.8515,0.8532,0.8573,0.8596,0.8627,0.8656,0.8649,0.8707,0.8704,0.8721,0.872,0.8734,0.8733,0.8766,0.8746,0.8745,0.8745,0.8745,0,0.8203,0.824,0.8287,0.8316,0.8357,0.8389,0.8429,0.8455,0.849,0.8523,0.8544,0.8573,0.8609,0.8643,0.8665,0.8706,0.8716,0.8729,0.8735,0.8728,0.8726,0.8743,0.8742,0.8747,0.8746,0.8746,0.8746,0,0.8217,0.825,0.8302,0.8353,0.8366,0.8395,0.8437,0.8465,0.849,0.8531,0.8542,0.8582,0.8622,0.8653,0.8705,0.872,0.8763,0.8769,0.875,0.8753,0.8768,0.8766,0.8814,0.8822,0.8796,0.8796,0.8796,0,0.8237,0.8266,0.832,0.8344,0.8369,0.8407,0.8434,0.8465,0.8491,0.8539,0.856,0.8602,0.8637,0.87,0.8732,0.8772,0.8779,0.8793,0.8785,0.8777,0.8779,0.8777,0.878,0.8794,0.8794,0.8794,0.8794,0,0.827,0.8284,0.8322,0.8366,0.8397,0.8432,0.8468,0.8485,0.8522,0.855,0.8593,0.862,0.8673,0.8713,0.8756,0.878,0.8793,0.8796,0.8802,0.8796,0.8784,0.8791,0.8753,0.8796,0.8795,0.8795,0.8795,0.8795,0.8288,0.8314,0.8356,0.8397,0.8427,0.8459,0.8487,0.8516,0.8552,0.8598,0.8613,0.8656,0.8694,0.8752,0.8776,0.8809,0.8809,0.8818,0.882,0.8822,0.8821,0.8778,0.8816,0.8816,0.8816,0.8816,0.8816,0,0.8322,0.8349,0.8386,0.8436,0.8467,0.8477,0.8516,0.8541,0.8579,0.8614,0.8648,0.8695,0.8734,0.8768,0.8808,0.8827,0.8834,0.8837,0.8836,0.8841,0.8819,0.881,0.8831,0.8831,0.8831,0.8831,0.8831,0.8831,0.8343,0.8388,0.8407,0.8466,0.8493,0.8536,0.8557,0.8586,0.8614,0.8666,0.8698,0.8721,0.8755,0.8797,0.8832,0.8841,0.8855,0.8856,0.8866,0.8845,0.8843,0.8841,0.8833,0.8858,0.8859,0.8886,0.8886,0.8886]}]]